This demonstration page uses our WeatherBlox Daily Observations layout. Learn more.

Left ArrowRight Arrow

Hourly Observations for February 10, 2020

Temp ( °F °C ) Dew Point ( °F °C ) Humidity (%) Winds ( mph kmh ) Pressure ( in mb ) Visibility ( mi km ) Precip ( " mm )
12:53 am 00:53 Cloudy with Light Rain 47 8.3 41 5 80 80 S 6 9 30.01 1016 10 16 0.00 0.00
1:53 am 01:53 Cloudy with Light Rain 48 8.9 43 6.1 83 83 VRB 5 7 30.00 1016 6 10 0.01 0.25
2:53 am 02:53 Cloudy 49 9.4 43 6.1 80 80 SSW 9 15 30.00 1016 10 16 0.01 0.25
3:11 am 03:11 Cloudy with Light Rain 49 9.4 44 6.7 83 83 SW 10 17 30.00 1016 10 16 0.00 0.00
3:53 am 03:53 Cloudy with Light Rain 49 9.4 44 6.7 83 83 SW 10 17 30.01 1016 10 16 0.00 0.00
4:53 am 04:53 Cloudy 49 9.4 45 7.2 86 86 S 7 11 30.00 1016 10 16 0.00 0.00
5:53 am 05:53 Cloudy 50 10 45 7.2 83 83 SW 8 13 30.00 1016 10 16 N/A
6:53 am 06:53 Cloudy 49 9.4 45 7.2 86 86 SW 9 15 30.01 1016 10 16 0.00 0.00
8:08 am 08:08 Partly Cloudy with Rain 45 7.2 43 6.1 93 93 NNW 8 13 30.06 1018 1 2 N/A
8:23 am 08:23 Cloudy with Light Rain 44 6.7 43 6.1 96 96 NNW 9 15 30.07 1018 2 3 N/A
8:34 am 08:34 Cloudy with Light Rain 44 6.7 42 5.6 93 93 NNW 7 11 30.07 1018 3 5 N/A
8:53 am 08:53 Cloudy with Mist and Fog 44 6.7 42 5.6 93 93 WNW 5 7 30.08 1019 6 10 N/A
9:09 am 09:09 Cloudy with Light Rain 43 6.1 42 5.6 97 97 NW 6 9 30.09 1019 3 4 0.00 0.00
9:53 am 09:53 Cloudy with Mist and Fog 41 5 39 3.9 93 93 NNW 8 13 30.10 1019 2 3 0.01 0.25
10:02 am 10:02 Cloudy with Mist and Fog 40 4.4 39 3.9 97 97 N 7 11 30.12 1020 2 3 N/A
10:15 am 10:15 Cloudy with Mist and Fog 40 4.4 39 3.9 97 97 NNW 8 13 30.12 1020 3 4 N/A
10:31 am 10:31 Cloudy with Mist and Fog 40 4.4 38 3.3 93 93 NNW 6 9 30.13 1020 2 3 0.01 0.25
10:35 am 10:35 Cloudy with Mist and Fog 40 4.4 38 3.3 93 93 NNW 8 13 30.13 1020 2 3 0.01 0.25
10:45 am 10:45 Cloudy with Mist and Fog 40 4.4 38 3.3 93 93 NNW 3 6 30.12 1020 2 3 0.01 0.25
10:53 am 10:53 Cloudy with Mist and Fog 40 4.4 39 3.9 97 97 N 6 9 30.11 1020 2 3 0.01 0.25
11:53 am 11:53 Cloudy with Mist and Fog 41 5 39 3.9 93 93 NE 6 9 30.10 1019 3 5 0.00 0.00
12:53 pm 12:53 Cloudy 41 5 38 3.3 89 89 N 7 11 30.10 1019 10 16 N/A
1:53 pm 13:53 Cloudy 41 5 38 3.3 89 89 N 8 13 30.07 1018 10 16 N/A
2:53 pm 14:53 Cloudy 41 5 38 3.3 89 89 NNW 7 11 30.06 1018 10 16 N/A
3:53 pm 15:53 Cloudy with Mist and Fog 40 4.4 38 3.3 93 93 N 7 11 30.06 1018 3 5 N/A
4:53 pm 16:53 Cloudy with Mist and Fog 39 3.9 37 2.8 93 93 N 6 9 30.09 1019 3 5 N/A
5:06 pm 17:06 Cloudy with Mist and Fog 39 3.9 37 2.8 93 93 N 8 13 30.09 1019 3 4 N/A
5:53 pm 17:53 Cloudy with Mist and Fog 39 3.9 37 2.8 93 93 N 6 9 30.08 1019 3 5 N/A
6:30 pm 18:30 Cloudy with Mist and Fog 38 3.3 37 2.8 97 97 NNE 5 7 30.11 1019 5 8 N/A
6:53 pm 18:53 Cloudy 38 3.3 37 2.8 97 97 VRB 3 6 30.10 1019 7 11 N/A
7:53 pm 19:53 Cloudy with Mist and Fog 38 3.3 36 2.2 93 93 NNW 8 13 30.14 1020 3 5 N/A
8:05 pm 20:05 Cloudy with Mist and Fog 37 2.8 36 2.2 96 96 NNW 7 11 30.14 1021 3 4 N/A
8:16 pm 20:16 Cloudy with Mist and Fog 37 2.8 36 2.2 96 96 N 7 11 30.13 1020 3 4 N/A
8:44 pm 20:44 Cloudy with Mist and Fog 37 2.8 36 2.2 96 96 N 6 9 30.12 1020 3 5 N/A
8:53 pm 20:53 Cloudy with Mist and Fog 37 2.8 36 2.2 96 96 VRB 5 7 30.11 1020 4 6 N/A
9:53 pm 21:53 Cloudy with Mist and Fog 37 2.8 35 1.7 93 93 N 7 11 30.11 1020 5 8 N/A
10:53 pm 22:53 Cloudy with Mist and Fog 36 2.2 34 1.1 93 93 NNW 5 7 30.12 1020 4 6 N/A
11:53 pm 23:53 Cloudy with Mist and Fog 36 2.2 34 1.1 93 93 N 8 13 30.09 1019 5 8 N/A

Powered by AerisWeather